User: anonymous   Login
Location: Calvatone
(45.1167°N, 10.4333°E)
Time: 22:18:23
(UTC+00:00)
Language:

METEOR M2 - Orbit

View from above orbital plane
View from above orbital plane
View from above satellite
View from above satellite

Ground track
Ground track

The orbit data is extracted from the following two-line orbital elements,

1 40069U 14037A   23335.52361806  .00000302  00000-0  15874-3 0  9994
2 40069  98.4285 333.7690 0005147 205.7817 154.3105 14.20850650487419
Epoch (UTC): 01 December 2023 12:34:00
Eccentricity: 0.0005147
inclination: 98.4285°
perigee height: 819 km
apogee height: 826 km
right ascension of ascending node: 333.7690°
argument of perigee: 205.7817°
revolutions per day: 14.20850650
mean anomaly at epoch: 154.3105°
orbit number at epoch: 48741

The dashed part of the orbit path shows where the satellite is in the earth's shadow,  

DLR